User: anonymous   Login
Location: Unspecified
(0.0000°N, 0.0000°E)
Time: 11:39:00
(UTC+00:00)
Language:

Vela 6A - Orbit

View from above orbital plane
View from above orbital plane
View from above satellite
View from above satellite

Ground track
Ground track

The orbit data is extracted from the following two-line orbital elements,

1 04366U 70027A   15109.35780149  .00000416  00000-0  00000+0 0  9998
2 04366 050.1840 236.5113 6755012 083.4765 000.1793 00.21454589 28962
Epoch (UTC): 19 April 2015 08:35:14
Eccentricity: 0.6755012
inclination: 50.1840°
perigee height: 31869 km
apogee height: 191104 km
right ascension of ascending node: 236.5113°
argument of perigee: 83.4765°
revolutions per day: 0.21454589
mean anomaly at epoch: 0.1793°
orbit number at epoch: 2896

The dashed part of the orbit path shows where the satellite is in the earth's shadow,  

DLR